sat.trackr.live / text

‹ back to catalog

STARLINK-33734

NORAD 63367 · 2025-063E

PAYLOAD ACTIVE UNKNOWN

§ Identity

Operator
Country
US
Launch date
2025-03-26
Launch site
AFWTR
Launch vehicle
Mass (kg)
RCS (m²)

Purposes: comms

External: N2YO · Heavens-Above · Gunter

§ Orbital elements

Epoch: 2026-09-20T22:40:37.547328Z

Period
93.85 min
Inclination
53.1578°
Eccentricity
0.0001558
Mean motion
15.34394103 rev/d
Perigee alt
461.7 km
Apogee alt
463.8 km
Semi-major
6,840.9 km
B*
4.0244e-4
RAAN
233.3382°
Arg perigee
88.1417°
Mean anomaly
271.9764°
Rev number
8,449

§ Raw data

STARLINK-337341 63367U 25063E   26263.94487902  .00013242  00000+0  40244-3 0  99912 63367  53.1578 233.3382 0001558  88.1417 271.9764 15.34394103 84492

JSON: /api/v1/satellites/63367 · /tle

For live sub-satellite position, see the globe view (requires WebGL).

§ Visibility from observer

Set your observer location to see the next 7 days of passes ≥ 10°. The values pass through the URL so the page stays shareable.

No JS? Fill the form by hand. The geolocation button needs JavaScript.